Forside
METAR-TAF:

METAR-TAF

Lufthavne :

Porter County Municipal Airport

Valparaiso, Indiana, USA

Breddekreds: 41-27-11N, længdekreds: 086-59-53W, højde: 234 m

Aktuelle vejr

Denne rapport blev lavet for 1 time og 9 minutter siden, kl. 17:56 UTC
Vind 8 kt fra vestnordvest
Temperatur 4°C
Fugtighed 48%
Tryk 1027 hPa
Sigt: 16.1 km
skyfri

METAR: KVPZ 021756Z AUTO 30008KT 10SM CLR 04/M06 A3033 RMK AO2 SLP279 T00441056 10044 21061 50003

Tid: 13:05 (19:05 UTC)


TAF: fraværende

Vejrobservationer og prognoser fra mere end 4000 lufthavne (METAR og TAF).

De gule og røde prikker repræsenterer de meteorologiske stationer.

Flyt musen over at se navnet på stationen.

Så klik over at se vejr observationer og prognoser.

At skifte det kort: Klik på de grønne knapper med et sort kors for at zoome ind; på den grønne knap med en bindestreg for at zoome ud; eller på de grønne pile for tilstødende kort.


METAR-TAF: